Location: Atherton
(17.2661°S, 145.4859°E)
Time: 22:22:16
(UTC+10:00)

BlueWalker 3 - Pass Details

Date: 20 April 2026
Orbit: 447 x 458 km, 53.2° (Epoch: 11 May)

Event Time Altitude Azimuth Distance (km) Brightness Sun altitude
Rises 18:58:17 0° 344° (NNW) 2,456 5.8 -13.1°
Reaches altitude 10° 19:00:36 10° 356° (N) 1,589 4.6 -13.7°
Maximum altitude 19:03:42 28° 57° (ENE) 891 2.8 -14.4°
Enters shadow 19:04:23 26° 77° (ENE) 936 2.7 -14.6°
